Location: Maccacari
(45.1333°N, 11.1333°E)
Time: 08:12:42
(UTC+00:00)

SR - Pass Details

Date: 23 January 2021
Orbit: 573 x 882 km, 66.7° (Epoch: 04 March)

Event Time Altitude Azimuth Distance (km) Brightness Sun altitude
Exits shadow 04:38:30 57° 273° (W) 835 ? -22.1°
Maximum altitude 04:39:04 62° 306° (NW) 807 ? -22.0°
Drops below altitude 10° 04:44:17 10° 27° (NNE) 2,308 ? -21.1°
Sets 04:46:50 0° 31° (NNE) 3,289 ? -20.6°
